Location: Cedar Brake
(32.2526°N, 97.8459°W)
Time: 08:53:29
(UTC+00:00)

SL-16 R/B - Pass Details

Date: 22 April 2026
Orbit: 985 x 1006 km, 99.8° (Epoch: 15 May)

Event Time Altitude Azimuth Distance (km) Brightness Sun altitude
Rises 10:51:39 0° 174° (S) 3,710 5.4 -13.3°
Reaches altitude 10° 10:54:09 10° 177° (S) 2,766 4.7 -12.8°
Maximum altitude 11:00:18 62° 257° (WSW) 1,121 2.6 -11.6°
Drops below altitude 10° 11:06:30 10° 338° (NNW) 2,785 4.9 -10.4°
Sets 11:09:02 0° 342° (NNW) 3,738 5.6 -9.9°
